Aurora, IL

4:17 PM CDT on September 16, 2019 (GMT -0500)
Aurora Municipal

Weather History for KARR - August, 2019

Change the Weather History Date:

Saturday, August 17, 2019

  Actual Average Record
Temperature  
Mean Temperature 69 °F 70 °F  
Max Temperature 77 °F 81 °F 87 °F (2015)
Min Temperature 61 °F 59 °F 48 °F (2012)
Degree Days  
Heating Degree Days 0 0  
Month to date heating degree days 0 0  
Since 1 June heating degree days 25 50  
Since 1 July heating degree days 0 9  
Cooling Degree Days 4 6  
Month to date cooling degree days 104 102  
Year to date cooling degree days 602 513  
Since 1 June cooling degree days 583 472  
Growing Degree Days 20 (Base 50)    
Moisture  
Dew Point 67 °F    
Average Humidity 88    
Maximum Humidity 100    
Minimum Humidity 76    
Precipitation  
Precipitation 0.04 in 0.13 in 0.89 in (2000)
Month to date precipitation 0.63 2.56  
Year to date precipitation 26.92 23.64  
Sea Level Pressure  
Sea Level Pressure 29.89 in    
Wind  
Wind Speed 5 mph (SSE)    
Max Wind Speed 14 mph    
Max Gust Speed 20 mph    
Visibility 9 miles    
Events      
T = Trace of Precipitation, MM = Missing Value Source: NWS Daily Summary

Daily Weather History Graph

Daily Weather History Graph

Search for Another Location

Airport or City:

Astronomy

Aug. 17, 2019 Rise Set
Actual Time 6:04 AM CDT 7:51 PM CDT
Civil Twilight 5:34 AM CDT 8:20 PM CDT
Nautical Twilight 4:58 AM CDT 8:56 PM CDT
Astronomical Twilight 4:19 AM CDT 9:35 PM CDT
Moon 9:17 PM CDT (8/17) 7:53 AM CDT (8/17)
Length of Visible Light 14h 46m
Length of Day
13h 47m
Waning Gibbous, 96% of the Moon is Illuminated
Aug 17
Waning Gibbous
Aug 23
Last Quarter
Aug 30
New
Sep 5
First Quarter
Sep 13
Full

Hourly Weather History & Observations

Time (CDT) Temp. Dew Point Humidity Pressure Visibility Wind Dir Wind Speed Gust Speed Precip Events Conditions
12:52 AM 64.9 °F 63.0 °F 93% 29.91 in 10.0 mi Calm Calm - N/A   Scattered Clouds
1:52 AM 66.0 °F 64.0 °F 93% 29.89 in 10.0 mi Calm Calm - N/A   Overcast
2:52 AM 64.9 °F 63.0 °F 93% 29.89 in 7.0 mi Calm Calm - N/A   Mostly Cloudy
3:52 AM 63.0 °F 62.1 °F 97% 29.87 in 8.0 mi Calm Calm - N/A   Partly Cloudy
4:29 AM 62.1 °F 60.1 °F 93% 29.89 in 1.5 mi Calm Calm - N/A   Clear
4:46 AM 62.6 °F 60.8 °F 94% 29.89 in 3.0 mi Calm Calm - N/A   Partly Cloudy
4:52 AM 62.1 °F 60.1 °F 93% 29.87 in 7.0 mi NNE 3.5 mph - N/A   Partly Cloudy
5:10 AM 62.1 °F 61.0 °F 96% 29.89 in 7.0 mi Calm Calm - N/A   Partly Cloudy
5:52 AM 62.1 °F 60.1 °F 93% 29.90 in 10.0 mi Calm Calm - N/A   Scattered Clouds
6:52 AM 64.9 °F 64.0 °F 97% 29.90 in 7.0 mi Calm Calm - N/A   Mostly Cloudy
7:52 AM 69.1 °F 66.9 °F 93% 29.92 in 6.0 mi ESE 3.5 mph - N/A   Mostly Cloudy
8:52 AM 71.1 °F 66.9 °F 87% 29.92 in 8.0 mi NNE 5.8 mph - N/A   Mostly Cloudy
9:52 AM 75.0 °F 68.0 °F 79% 29.91 in 9.0 mi Variable 4.6 mph - 0.00 in   Mostly Cloudy
10:34 AM 75.9 °F 68.0 °F 76% 29.93 in 9.0 mi SSE 10.4 mph - N/A   Mostly Cloudy
10:48 AM 75.2 °F 69.8 °F 83% 29.93 in 8.0 mi SE 9.2 mph - N/A   Overcast
10:52 AM 75.9 °F 69.1 °F 79% 29.92 in 8.0 mi SSE 11.5 mph - N/A   Overcast
10:59 AM 73.0 °F 66.9 °F 81% 29.93 in 7.0 mi South 12.7 mph 19.6 mph N/A   Overcast
11:52 AM 73.9 °F 70.0 °F 87% 29.89 in 10.0 mi SSE 8.1 mph - 0.04 in   Mostly Cloudy
12:52 PM 75.0 °F 70.0 °F 84% 29.86 in 9.0 mi ESE 8.1 mph - N/A   Mostly Cloudy
1:52 PM 73.9 °F 69.1 °F 85% 29.89 in 10.0 mi South 8.1 mph - N/A   Mostly Cloudy
1:59 PM 73.0 °F 69.1 °F 87% 29.90 in 10.0 mi South 6.9 mph - N/A   Overcast
2:52 PM 73.9 °F 69.1 °F 85% 29.89 in 10.0 mi South 8.1 mph - 0.00 in   Overcast
3:30 PM 75.0 °F 69.1 °F 82% 29.90 in 10.0 mi South 8.1 mph - N/A   Overcast
3:52 PM 75.0 °F 69.1 °F 82% 29.89 in 10.0 mi SW 3.5 mph - N/A   Overcast
4:52 PM 77.0 °F 69.1 °F 76% 29.86 in 10.0 mi SSE 6.9 mph - N/A   Overcast
4:59 PM 77.0 °F 69.1 °F 76% 29.87 in 10.0 mi South 9.2 mph - N/A   Partly Cloudy
5:52 PM 75.9 °F 68.0 °F 76% 29.85 in 10.0 mi South 5.8 mph - N/A   Clear
6:52 PM 75.9 °F 69.1 °F 79% 29.85 in 10.0 mi South 8.1 mph - N/A   Clear
7:52 PM 73.9 °F 69.1 °F 85% 29.86 in 10.0 mi SSE 3.5 mph - N/A   Partly Cloudy
8:23 PM 73.0 °F 69.1 °F 87% 29.88 in 10.0 mi South 3.5 mph - N/A   Mostly Cloudy
8:33 PM 72.0 °F 69.1 °F 91% 29.88 in 10.0 mi SSE 4.6 mph - N/A   Scattered Clouds
8:52 PM 72.0 °F 69.1 °F 91% 29.87 in 10.0 mi South 5.8 mph - N/A   Clear
9:52 PM 71.1 °F 68.0 °F 90% 29.86 in 10.0 mi South 6.9 mph - N/A   Clear
10:52 PM 68.0 °F 66.0 °F 93% 29.87 in 10.0 mi SSE 5.8 mph - N/A   Clear
11:52 PM 66.9 °F 64.9 °F 93% 29.87 in 9.0 mi SE 3.5 mph - N/A   Clear